SBIRS GEO-1 (USA 230)

Last updated on Sun Apr 12 2026 00:02:52 GMT+0000 (Coordinated Universal Time)

1 37481U 11019A 26101.03182837 .00000104 00000+0 00000+0 0 9990 2 37481 4.3900 53.1159 0002301 322.3541 247.0410 1.00272167 54723
UTC large
Height (km)
Speed (km/s)
/
Latitude / Longitude
Inclination (degrees)
Orbital Period (minutes)
Azimuth
Elevation
Range (km)
Doppler Factor

Next 0 passes for location: London (51.5072 / 0.1276)

Sorry there are no passes over London.
SBIRS GEO-1 (USA 230)